Location: Heilwood
(40.6210°N, 78.9150°W)
Time: 02:40:01
(UTC-05:00)

Daily predictions for brighter satellites

Satellite Brightness Start Highest point End
(mag) Time Altitude Azimuth Time Altitude Azimuth Time Altitude Azimuth
COSMOS 2455 4.4 04:08:00 31° E 04:08:00 31° E 04:11:55 10° NE
BREEZE-M DEB (TANK) 4.3 04:33:45 49° NNE 04:33:45 49° NNE 04:36:45 10° NE
Lacrosse 5 3.5 04:36:03 30° ENE 04:36:03 30° ENE 04:39:25 10° E
Cosmos 1745 Rocket 4.4 04:43:00 54° NNE 04:43:00 54° NNE 04:47:51 10° NNE
ISS -0.2 04:47:48 10° ESE 04:47:48 10° ESE 04:47:51 10° ESE
Cosmos 1844 Rocket 4.0 04:53:39 10° S 04:58:44 38° ESE 05:03:50 10° NE
Atlas Centaur 2 4.1 05:02:05 10° SSE 05:02:05 10° SSE 05:02:08 10° SSE
CENTAUR R/B 3.5 05:02:31 33° N 05:02:31 33° N 05:07:09 10° NNE
Cosmos 1190 Rocket 4.1 05:04:29 71° ENE 05:04:29 71° ENE 05:09:18 10° NNE
COSMOS 2406 4.5 05:09:46 17° N 05:13:36 38° ENE 05:18:50 10° SE
IDEFIX/ARIANE 42P 3.3 05:10:03 10° NNE 05:15:13 52° E 05:20:20 10° S
Okean-O 2.9 05:22:52 10° NNE 05:27:18 68° ESE 05:31:42 10° S
CZ-2C R/B 4.0 05:22:56 10° S 05:26:44 54° SSW 05:26:44 54° SSW
Feng Yun 1-1 Rocket 4.1 05:26:30 10° NNE 05:31:58 84° ESE 05:37:21 10° SSW
Cosmos 1709 Rocket 4.0 05:26:29 10° S 05:32:44 87° E 05:39:08 10° N
Cosmos 614 Rocket 4.5 05:28:08 10° S 05:33:10 59° ESE 05:38:11 10° NNE
ATLAS CENTAUR R/B 4.1 05:35:01 10° NNE 05:36:21 11° NE 05:37:43 10° ENE
Cosmos 1076 Rocket 4.4 05:32:26 10° N 05:36:40 49° E 05:40:50 10° SSE
CZ-4C R/B 3.4 05:34:58 17° NNW 05:40:37 57° NE 05:48:28 10° SE
Shenzhou-11 Module 3.7 05:41:04 27° SSE 05:41:17 27° SSE 05:43:54 10° E
COSMO-SKYMED 1 2.4 05:39:20 10° S 05:43:38 70° WSW 05:44:52 45° NNW
Nadezhda 1 Rocket 4.4 05:47:39 31° NW 05:49:45 39° W 05:55:34 10° SSW
Cosmos 407 Rocket 3.7 05:49:53 40° W 05:50:50 44° WNW 05:55:50 10° N
EO 1 Del DPAF 3.1 05:47:49 10° SSE 05:51:37 83° WSW 05:53:22 31° NNW
COSMOS 2455 3.3 05:51:14 35° WNW 05:52:21 38° NW 05:57:58 10° NNE
DELTA 2 R/B (1) 3.6 05:50:39 38° W 05:52:55 81° S 05:58:31 10° E
Cosmos 676 Rocket 3.9 05:48:08 10° SSW 05:53:16 66° WNW 05:58:27 10° NNE
CZ-2C R/B 2.2 05:51:15 10° NNE 05:55:51 90° W 06:00:30 10° SSW
NOAA 6 4.1 05:53:18 10° N 05:58:20 52° WNW 06:03:21 10° SSW
Cosmos 1626 3.8 05:56:24 10° N 05:59:50 34° ENE 06:03:15 10° SE
Cosmos 1470 3.0 05:56:04 10° SSW 05:59:53 45° W 06:03:45 10° N
Cosmos 371 Rocket 4.3 05:55:30 10° N 06:00:11 46° ENE 06:04:52 10° SE
Cosmos 2263 Rocket 4.0 06:03:04 14° NNW 06:03:04 14° NNW 06:04:34 10° NNW
Cosmos 1954 Rocket 3.9 06:01:13 10° SSW 06:06:18 60° WNW 06:11:27 10° NNE
Cosmos 1400 Rocket 3.2 06:05:38 30° NW 06:07:11 44° W 06:11:05 10° SSW
Cosmos 1328 4.1 06:04:28 10° N 06:08:28 67° E 06:12:25 10° SSE
Cosmos 1140 Rocket 3.4 06:04:26 10° SSW 06:09:29 60° WNW 06:14:35 10° NNE
Abrixas rocket 3.9 06:10:46 19° NNW 06:11:27 21° N 06:14:01 10° ENE
BREEZE-M DEB (TANK) 2.4 06:11:55 31° NNW 06:12:05 31° NNW 06:15:28 10° NE
PAYLOAD A 4.1 06:07:36 10° N 06:12:17 43° WNW 06:16:48 10° SW
Cosmos 2278 Rocket 2.8 06:11:56 10° S 06:17:30 61° ESE 06:23:05 10° NNE
Lacrosse 5 2.2 06:15:17 24° WNW 06:17:56 46° SW 06:22:43 10° SSE
Cosmos 2074 Rocket 4.1 06:11:51 10° S 06:18:04 83° E 06:24:20 10° N
ISS -2.4 06:20:28 22° WSW 06:21:04 23° SW 06:23:43 10° S
Milstar 3 4.3 06:16:01 10° SW 06:21:46 27° S 06:27:25 10° ESE
Cosmos 2181 Rocket 4.1 06:15:52 10° NNW 06:21:56 51° W 06:27:53 10° SSW
PSLV R/B 3.9 06:20:57 26° WSW 06:22:07 38° SSW 06:25:02 10° SE
SMAP 3.9 06:19:06 10° NNE 06:23:41 55° E 06:28:14 10° S
CZ-4 R/B 3.0 06:21:38 10° NNE 06:25:33 39° E 06:29:21 10° SSE
Cosmos 1570 Rocket 4.4 06:21:17 10° NNW 06:26:32 67° ENE 06:31:42 10° SSE
Meteor 2-19 Rocket 4.4 06:20:58 10° S 06:27:03 88° E 06:33:09 10° N
MSX 3.9 06:25:53 10° N 06:31:28 54° WNW 06:37:02 10° SSW
USA 229 DEB 4.5 06:26:33 10° SSW 06:33:05 56° ESE 06:39:46 10° NE
Meteor 1-11 4.3 06:27:17 10° N 06:33:05 88° E 06:38:54 10° S
Cosmos 1408 Rocket 3.5 06:33:09 10° NNW 06:37:29 71° W 06:41:51 10° S
CSL-04 Rocket 3.8 06:34:12 10° NNE 06:39:38 79° ESE 06:44:57 10° S
Cosmos 1844 Rocket 3.4 06:37:47 10° WSW 06:42:40 30° WNW 06:47:33 10° N
Cosmos-2242 3.2 06:38:56 10° SSW 06:43:09 49° W 06:47:21 10° N
Meteor 1-16 Rocket 4.3 06:38:41 10° SSW 06:44:14 53° WNW 06:49:39 10° N
GPS 2-04 Rocket1 4.4 06:42:26 10° SW 06:46:15 32° SSE 06:50:05 10° ESE
Cosmos 1844 4.2 06:41:32 10° SW 06:46:51 37° WNW 06:52:08 10° N
Cosmos 1703 3.3 06:43:17 10° N 06:47:16 88° ENE 06:51:13 10° S
Cosmos 1500 Rocket 4.4 06:43:54 10° N 06:48:16 55° E 06:52:34 10° SSE
Cosmos 1908 4.0 06:45:53 10° S 06:49:43 58° E 06:53:36 10° NNE
Cosmos 332 Rocket 4.1 06:47:45 10° NNW 06:52:28 48° WSW 06:57:09 10° S
CENTAUR R/B 4.4 06:50:07 10° NW 06:53:34 14° NNW 06:57:13 10° NNE
Cosmos 1741 Rocket 4.2 06:48:58 10° SW 06:54:06 52° WNW 06:59:14 10° N
IDEFIX/ARIANE 42P 3.8 06:50:37 10° NNW 06:54:24 20° WNW 06:58:10 10° WSW
COSMOS 2406 4.0 06:52:52 10° NW 06:57:45 30° WSW 07:02:36 10° SSW
SeaSat 1 3.1 06:54:14 10° NNE 06:59:08 61° ESE 07:04:00 10° SSW
Cosmos 2082 Rocket 3.0 06:54:21 10° NNW 06:59:51 52° ENE 07:05:19 10° SE
Cosmos 1743 Rocket 3.5 06:56:24 10° N 07:00:44 82° W 07:05:03 10° S
Okean-O 4.4 07:01:27 10° NW 07:03:11 12° WNW 07:04:56 10° W
Cosmos 2154 Rocket 4.0 06:57:09 10° S 07:03:21 82° W 07:09:36 10° N
USA 81 4.5 06:59:34 10° N 07:04:50 69° E 07:10:05 10° SSE
ALOS 3.5 07:00:47 10° NNE 07:05:19 48° E 07:09:49 10° S
Ariane Rocket 3.0 07:01:16 10° N 07:06:20 68° WNW 07:11:23 10° SSW
Cosmos 1484 Rocket 3.4 07:03:07 10° N 07:06:25 30° WNW 07:09:43 10° SW
Tiangong 2 2.5 07:05:03 10° SW 07:08:04 39° SSE 07:11:06 10° E
Cosmos 304 Rocket 4.1 07:03:22 10° NNW 07:08:10 72° ENE 07:12:56 10° SSE
Cosmos 1315 Rocket 4.3 07:05:35 10° NW 07:08:13 17° W 07:10:52 10° SW
CSL-04 Debris 4.2 07:03:01 10° N 07:08:30 65° WNW 07:13:54 10° SSW
